Newport News, VA

4:28 AM EDT on June 26, 2017 (GMT -0400)
Newport News-Williamsburg International

Weather History for KPHF - February, 2014

Change the Weather History Date:

Tuesday, February 4, 2014

  Actual Average Record
Temperature  
Mean Temperature 40 °F -  
Max Temperature 42 °F 46 °F 70 °F (1962)
Min Temperature 37 °F 28 °F 16 °F (1970)
Degree Days  
Heating Degree Days 26    
Moisture  
Dew Point 32 °F    
Average Humidity 78    
Maximum Humidity 89    
Minimum Humidity 67    
Precipitation  
Precipitation 0.15 in - - ()
Sea Level Pressure  
Sea Level Pressure 30.31 in    
Wind  
Wind Speed 7 mph (NE)    
Max Wind Speed 12 mph    
Max Gust Speed 16 mph    
Visibility 6 miles    
Events Rain    
Averages and records for this station are not official NWS values.
T = Trace of Precipitation, MM = Missing Value Source: NWS Daily Summary

Daily Weather History Graph

Daily Weather History Graph

Search for Another Location

Airport or City:

Trip Planner

Search our weather history database for the weather conditions in past years. The results will help you decide how hot, cold, wet, or windy it might be!

Date:

Astronomy

Feb. 04, 2014 Rise Set
Actual Time 7:06 AM EST 5:34 PM EST
Civil Twilight 6:38 AM EST 6:01 PM EST
Nautical Twilight 6:07 AM EST 6:32 PM EST
Astronomical Twilight 5:37 AM EST 7:02 PM EST
Moon 9:51 AM EST (2/4) 11:16 PM EST (2/4)
Length of Visible Light 11h 22m
Length of Day
10h 28m
Waxing Crescent, 29% of the Moon is Illuminated
Feb 4
Waxing Crescent
Feb 6
First Quarter
Feb 14
Full
Feb 22
Last Quarter
Mar 1
New

Hourly Weather History & Observations

Time (EST) Temp. Windchill Dew Point Humidity Pressure Visibility Wind Dir Wind Speed Gust Speed Precip Events Conditions
12:42 AM 39.2 °F 35.0 °F 30.2 °F 70% 30.33 in 10.0 mi NNE 5.8 mph - N/A   Overcast
12:54 AM 39.0 °F 33.4 °F 30.9 °F 73% 30.33 in 10.0 mi NNE 8.1 mph - N/A   Overcast
1:54 AM 39.0 °F 32.8 °F 30.9 °F 73% 30.33 in 10.0 mi NE 9.2 mph - N/A   Overcast
2:54 AM 37.9 °F 31.5 °F 30.9 °F 76% 30.35 in 10.0 mi NNE 9.2 mph - N/A   Overcast
3:54 AM 37.0 °F 31.6 °F 30.0 °F 76% 30.35 in 9.0 mi NNE 6.9 mph 16.1 mph N/A   Mostly Cloudy
4:54 AM 37.9 °F 32.7 °F 30.0 °F 73% 30.35 in 10.0 mi NNE 6.9 mph - N/A   Overcast
5:54 AM 37.9 °F 33.5 °F 30.0 °F 73% 30.38 in 10.0 mi NNE 5.8 mph - N/A   Overcast
6:54 AM 37.9 °F 33.5 °F 30.0 °F 73% 30.40 in 10.0 mi NE 5.8 mph - N/A   Overcast
7:54 AM 37.9 °F 33.5 °F 30.0 °F 73% 30.42 in 7.0 mi NNE 5.8 mph - N/A   Overcast
8:54 AM 37.9 °F 30.5 °F 30.0 °F 73% 30.44 in 9.0 mi North 11.5 mph - N/A   Overcast
9:54 AM 39.0 °F 32.8 °F 30.0 °F 70% 30.44 in 10.0 mi NNE 9.2 mph - N/A   Overcast
10:54 AM 41.0 °F 36.4 °F 30.9 °F 67% 30.43 in 8.0 mi NNE 6.9 mph - N/A   Overcast
11:54 AM 41.0 °F 37.1 °F 30.9 °F 67% 30.44 in 10.0 mi NNE 5.8 mph - N/A   Overcast
12:54 PM 42.1 °F - 32.0 °F 67% 30.38 in 10.0 mi Calm Calm - N/A   Overcast
1:54 PM 42.1 °F 37.1 °F 33.1 °F 70% 30.35 in 10.0 mi ENE 8.1 mph - N/A   Overcast
2:54 PM 39.0 °F 32.3 °F 30.9 °F 73% 30.34 in 8.0 mi ENE 10.4 mph - N/A   Overcast
3:54 PM 39.0 °F 32.3 °F 30.9 °F 73% 30.31 in 9.0 mi ENE 10.4 mph - N/A   Overcast
4:14 PM 39.2 °F 34.2 °F 30.2 °F 70% 30.32 in 9.0 mi ENE 6.9 mph - N/A   Overcast
5:54 PM 37.9 °F 31.5 °F 30.0 °F 73% 30.30 in 5.0 mi ENE 9.2 mph - N/A   Haze
6:42 PM 37.4 °F 32.8 °F 32.0 °F 81% 30.29 in 5.0 mi ENE 5.8 mph - 0.00 in   Haze
6:54 PM 37.0 °F 32.4 °F 32.0 °F 82% 30.29 in 3.0 mi NE 5.8 mph - 0.00 in   Haze
7:03 PM 37.4 °F 32.1 °F 33.8 °F 87% 30.28 in 2.0 mi NE 6.9 mph - N/A   Overcast
7:19 PM 37.4 °F 32.1 °F 33.8 °F 87% 30.28 in 3.0 mi NE 6.9 mph - 0.00 in Rain Light Rain
7:44 PM 37.4 °F 30.8 °F 33.8 °F 87% 30.27 in 2.5 mi NE 9.2 mph - 0.01 in Rain Light Rain
7:54 PM 37.9 °F 32.7 °F 33.1 °F 83% 30.27 in 2.5 mi NE 6.9 mph - 0.02 in Rain Light Rain
8:17 PM 37.4 °F 32.1 °F 33.8 °F 87% 30.26 in 4.0 mi NE 6.9 mph - 0.00 in   Overcast
8:34 PM 37.4 °F 31.4 °F 33.8 °F 87% 30.26 in 2.5 mi NNE 8.1 mph - 0.01 in Rain Light Rain
8:54 PM 37.9 °F 32.1 °F 33.1 °F 83% 30.25 in 2.0 mi NE 8.1 mph - 0.04 in Rain Light Rain
9:17 PM 37.4 °F 32.1 °F 33.8 °F 87% 30.23 in 3.0 mi NE 6.9 mph - 0.02 in Rain Light Rain
9:54 PM 37.9 °F 32.7 °F 34.0 °F 86% 30.20 in 4.0 mi NE 6.9 mph - 0.03 in Rain Light Rain
10:27 PM 37.4 °F 31.4 °F 33.8 °F 87% 30.16 in 2.0 mi NE 8.1 mph - 0.03 in Rain Rain
10:42 PM 37.4 °F 31.4 °F 33.8 °F 87% 30.16 in 3.0 mi NE 8.1 mph - 0.04 in Rain Light Rain
10:54 PM 37.9 °F 34.4 °F 34.0 °F 86% 30.16 in 4.0 mi NE 4.6 mph - 0.05 in Rain Light Rain
11:54 PM 37.9 °F - 35.1 °F 89% 30.12 in 3.0 mi Calm Calm - 0.01 in   Overcast